Vorticity
5 8 4 8 11 9 12 16 9 6 5 5 5 4 4 4 3 4 3 3 2 2 3 4 5 5 6 7 3 3 4 4 5 5 3 3 8 3 14 8 5 7 10
11 7 6 14 6 3 2 2 3 4 5 5 4 5 5 5 5 3 1 1 -3 2 2 3 6 2 5 5 4 7 7 4 4 5 3 7 7 6 10 5 10 6 8
5 8 6 9 6 6 3 5 3 2 3 2 1 2 2 2 5 2 4 4 3 1 2 2 0 0 2 6 2 5 9 9 7 6 5 4 6 7 3 9 8 9 5
6 6 4 7 6 3 3 3 3 2 2 2 3 3 2 2 2 2 2 3 5 2 2 1 1 3 5 6 2 6 7 7 4 5 14 8 4 5 6 6 5 5 5
7 6 5 4 5 4 4 4 4 4 3 3 3 3 4 4 5 5 4 4 3 3 2 1 1 3 3 2 6 2 7 8 4 2 5 6 9 11 6 6 11 4 2
5 4 5 3 3 1 2 1 2 2 2 2 4 4 4 4 4 4 5 3 3 2 3 2 4 2 -1 -3 1 4 4 12 10 4 -1 4 8 16 8 6 5 7 5
5 4 3 3 2 1 1 2 2 4 2 3 3 3 4 5 5 5 7 4 3 3 3 4 5 0 1 3 3 3 6 12 8 16 -5 3 5 15 15 7 6 8 6
5 7 4 2 2 1 2 2 3 3 2 2 2 4 6 7 7 7 6 2 3 4 3 3 4 2 -0 3 -0 2 7 5 11 11 5 1 10 11 10 12 6 7 8
4 5 5 3 3 4 5 5 5 5 2 1 3 5 4 6 8 6 4 2 2 4 3 3 2 0 3 2 -4 -2 1 6 4 9 6 6 -0 3 17 11 4 6 8
3 4 3 8 9 5 6 4 2 3 5 2 4 5 3 2 5 9 5 4 4 4 4 3 1 2 1 -0 -1 -3 0 -2 5 4 5 3 9 0 2 17 10 4 7
5 1 2 3 4 5 3 4 6 3 3 5 7 6 6 3 2 4 7 6 6 3 1 2 9 9 5 3 0 -2 1 3 5 7 7 6 3 6 4 18 10 7 4
3 3 2 5 2 7 6 6 3 3 5 5 6 8 7 4 5 5 6 7 6 5 5 10 8 6 6 4 2 2 2 4 6 5 3 8 4 10 -2 11 16 11 3
10 9 2 4 3 4 7 9 8 7 5 7 7 4 2 2 4 5 4 2 3 3 2 3 4 5 6 7 6 5 4 3 5 -1 7 1 5 9 6 13 17 11 9
5 7 8 10 12 12 11 11 9 4 10 3 3 4 4 4 5 6 1 2 2 5 5 5 3 2 3 1 3 5 5 3 2 5 1 2 14 11 10 1 18 8 11
12 13 9 6 3 7 8 3 3 3 3 3 4 5 6 3 4 5 3 2 2 4 5 3 2 1 -0 -0 -2 5 4 3 1 5 0 -1 6 10 9 5 8 14 6
6 6 6 5 5 5 4 6 3 2 9 -5 0 6 8 7 10 12 7 9 12 5 -0 2 1 4 1 2 9 1 5 7 3 4 2 0 2 2 10 6 17 1 13
5 5 6 5 7 6 6 7 8 7 9 13 7 9 8 6 7 4 4 5 5 4 4 2 -1 0 3 0 5 4 5 3 4 31 7 3 -0 2 16 6 16 20 11
5 5 4 4 5 6 7 6 9 10 8 7 6 7 5 4 4 4 3 2 2 4 6 7 8 8 6 8 6 8 4 -1 0 2 4 3 3 0 6 2 2 26 11
9 10 9 9 6 4 5 7 7 6 5 5 5 5 6 7 8 7 9 9 8 5 4 3 1 2 1 4 6 6 5 4 5 1 2 3 4 3 6 11 6 12 1
4 6 4 5 7 9 5 2 4 6 6 5 5 7 8 8 7 6 3 1 -1 -1 -0 0 4 2 0 -1 1 3 6 5 4 3 2 1 3 3 7 3 12 10 -0
3 9 9 10 8 8 9 8 6 4 4 3 3 3 2 1 1 0 1 1 2 0 1 1 1 3 7 7 3 6 3 3 -1 3 2 -1 9 3 -2 -12 6 4 5
10 -1 3 8 4 1 2 3 2 2 2 2 1 2 3 3 4 5 6 6 6 6 6 8 9 10 4 6 9 11 1 6 4 5 8 -11 5 3 17 27 11 8 12
-3 6 8 7 1 3 5 4 4 4 7 7 6 6 3 4 5 4 6 5 5 6 7 8 12 11 6 23 19 37 9 14 8 75 20 -3 7 23 0 5 8 5 9
11 7 5 2 6 8 7 9 7 7 5 5 6 2 1 4 3 2 4 2 3 1 3 7 -4 -3 11 0 6 -1 9 33 -29 72 10 16 8 -33 33 -19 53 -28 22
3 5 5 4 6 9 8 5 4 5 5 2 1 2 -2 -1 3 4 4 7 2 4 6 9 30 7 49 24 14 -4 7 3 -38 32 -52 -1 37 22 -6 34 -24 63 7
5 3 2 2 5 3 4 4 5 6 6 5 5 5 3 2 -1 -3 -4 3 8 5 2 -0 12 32 17 13 14 7 13 11 -2 24 -18 -55 27 -18 38 20 30 -16 40
Height
5885 5885 5884 5884 5883 5884 5884 5885 5886 5885 5885 5886 5884 5885 5884 5884 5884 5884 5884 5884 5884 5884 5883 5882 5881 5880 5880 5878 5877 5876 5874 5873 5871 5869 5867 5865 5863 5862 5861 5859 5857 5856 5855
5885 5885 5884 5884 5885 5885 5884 5885 5887 5887 5887 5887 5886 5886 5886 5885 5885 5885 5885 5885 5884 5883 5883 5882 5881 5879 5878 5877 5875 5875 5874 5872 5870 5868 5866 5863 5861 5861 5860 5858 5857 5856 5854
5885 5884 5883 5884 5885 5886 5886 5886 5886 5886 5887 5887 5887 5887 5887 5886 5886 5885 5885 5884 5883 5883 5882 5880 5879 5877 5876 5875 5874 5874 5873 5871 5869 5867 5865 5863 5861 5860 5859 5858 5856 5855 5854
5884 5883 5883 5884 5885 5886 5887 5887 5887 5887 5886 5886 5887 5887 5887 5887 5886 5885 5884 5884 5883 5882 5880 5879 5877 5876 5874 5874 5873 5873 5872 5871 5868 5866 5864 5863 5860 5859 5858 5857 5856 5854 5853
5882 5882 5883 5883 5884 5885 5886 5886 5887 5887 5887 5887 5886 5886 5886 5885 5884 5883 5882 5882 5881 5880 5879 5877 5876 5874 5873 5872 5871 5872 5871 5870 5867 5864 5864 5861 5859 5857 5857 5856 5855 5854 5852
5880 5881 5882 5882 5882 5883 5883 5883 5884 5884 5885 5884 5885 5884 5883 5882 5881 5880 5880 5880 5879 5878 5877 5876 5875 5873 5872 5871 5870 5869 5870 5870 5867 5864 5862 5860 5858 5856 5855 5854 5853 5853 5852
5879 5880 5880 5881 5881 5881 5882 5883 5883 5883 5882 5882 5882 5881 5880 5879 5878 5878 5879 5878 5877 5876 5875 5874 5873 5872 5870 5869 5868 5866 5867 5868 5865 5862 5859 5859 5856 5854 5852 5852 5852 5851 5850
5876 5877 5878 5879 5879 5879 5879 5880 5880 5879 5879 5879 5879 5878 5877 5876 5875 5874 5875 5874 5873 5872 5872 5871 5870 5869 5868 5866 5865 5863 5862 5864 5863 5859 5857 5855 5853 5851 5849 5849 5850 5849 5849
5874 5875 5875 5875 5875 5876 5876 5876 5876 5876 5875 5875 5875 5875 5874 5873 5872 5871 5870 5869 5869 5868 5867 5867 5867 5867 5865 5864 5862 5860 5858 5859 5860 5857 5854 5854 5851 5849 5847 5846 5846 5846 5846
5872 5872 5873 5873 5874 5873 5873 5872 5872 5871 5871 5871 5871 5870 5869 5868 5868 5867 5865 5865 5865 5864 5863 5863 5863 5863 5862 5860 5858 5857 5854 5855 5857 5854 5850 5849 5849 5847 5845 5843 5842 5843 5843
5869 5871 5870 5869 5868 5869 5868 5868 5867 5866 5866 5865 5865 5865 5864 5863 5862 5861 5860 5859 5859 5858 5857 5857 5857 5856 5856 5855 5853 5852 5849 5848 5850 5850 5847 5844 5843 5841 5841 5839 5839 5838 5839
5865 5867 5867 5866 5865 5865 5864 5862 5861 5861 5860 5859 5859 5859 5858 5857 5856 5855 5854 5853 5853 5852 5852 5851 5850 5852 5852 5850 5848 5847 5845 5841 5841 5844 5843 5841 5839 5837 5836 5835 5834 5834 5834
5864 5864 5863 5862 5860 5861 5858 5858 5857 5856 5855 5853 5852 5852 5851 5850 5849 5848 5847 5846 5846 5845 5845 5845 5844 5845 5844 5843 5841 5840 5838 5836 5835 5836 5838 5836 5835 5833 5832 5831 5829 5829 5831
5855 5856 5857 5857 5854 5855 5853 5852 5851 5849 5848 5846 5846 5845 5844 5843 5843 5842 5841 5839 5840 5838 5838 5837 5836 5835 5835 5836 5835 5834 5832 5829 5828 5829 5830 5830 5830 5829 5827 5825 5825 5823 5824
5848 5847 5846 5846 5847 5848 5848 5847 5846 5844 5842 5841 5839 5837 5837 5836 5835 5833 5833 5832 5831 5830 5830 5829 5827 5826 5826 5826 5827 5826 5825 5822 5819 5822 5822 5822 5824 5823 5822 5820 5819 5819 5818
5840 5838 5839 5838 5838 5839 5839 5838 5837 5836 5834 5832 5832 5830 5828 5827 5826 5825 5823 5820 5823 5820 5821 5819 5816 5815 5816 5816 5816 5816 5814 5814 5812 5813 5815 5814 5814 5816 5816 5814 5811 5811 5813
5834 5834 5833 5833 5833 5831 5831 5831 5829 5827 5826 5825 5824 5822 5821 5820 5819 5816 5814 5813 5813 5812 5812 5811 5809 5808 5807 5807 5806 5805 5803 5804 5807 5807 5807 5807 5807 5808 5808 5808 5803 5803 5804
5829 5828 5826 5824 5824 5823 5822 5819 5819 5819 5817 5815 5814 5813 5811 5809 5807 5805 5803 5801 5798 5797 5797 5798 5797 5796 5795 5794 5795 5795 5795 5794 5793 5795 5795 5797 5797 5798 5800 5802 5799 5796 5797
5823 5820 5818 5817 5815 5814 5812 5810 5808 5806 5805 5804 5802 5801 5800 5798 5797 5795 5792 5790 5789 5787 5785 5784 5784 5783 5780 5780 5778 5779 5782 5782 5783 5781 5781 5785 5786 5789 5791 5790 5792 5791 5791
5815 5812 5811 5810 5809 5806 5803 5800 5798 5796 5794 5792 5791 5789 5786 5784 5782 5781 5780 5777 5774 5771 5769 5767 5768 5769 5770 5769 5765 5763 5763 5766 5768 5769 5768 5770 5771 5774 5778 5781 5782 5784 5783
5809 5806 5804 5800 5797 5795 5793 5791 5789 5787 5785 5782 5779 5776 5773 5771 5768 5765 5763 5761 5758 5757 5754 5751 5748 5747 5749 5752 5752 5749 5747 5748 5750 5754 5754 5756 5761 5762 5764 5768 5771 5773 5774
5802 5799 5796 5793 5791 5788 5786 5784 5780 5777 5774 5770 5767 5764 5761 5758 5754 5751 5747 5745 5742 5740 5737 5735 5732 5731 5730 5729 5729 5730 5729 5731 5733 5733 5737 5739 5741 5745 5746 5749 5755 5759 5761
5794 5792 5787 5781 5778 5776 5773 5772 5770 5765 5762 5759 5755 5751 5747 5743 5740 5735 5732 5728 5725 5720 5719 5715 5711 5709 5710 5713 5713 5714 5707 5713 5713 5716 5717 5720 5722 5728 5729 5734 5737 5741 5746
5784 5780 5774 5771 5767 5764 5761 5758 5753 5752 5749 5745 5740 5734 5729 5724 5719 5714 5711 5707 5703 5699 5696 5693 5691 5691 5689 5694 5694 5695 5696 5693 5686 5691 5700 5702 5706 5709 5714 5710 5708 5718 5727
5771 5766 5761 5758 5756 5751 5746 5742 5739 5733 5728 5724 5718 5714 5709 5704 5698 5691 5684 5678 5672 5668 5665 5662 5659 5658 5658 5662 5666 5671 5671 5677 5678 5673 5663 5679 5686 5690 5695 5704 5702 5707 5713
5758 5754 5749 5745 5741 5736 5731 5727 5721 5716 5711 5707 5701 5696 5690 5680 5672 5664 5656 5649 5645 5640 5637 5633 5628 5625 5623 5625 5631 5636 5640 5646 5654 5657 5657 5653 5668 5672 5673 5677 5689 5693 5695